Temperature
18 18 19 20 16 13 15 16 17 18 19 20 20 20 20 20 20 21 22 22 22 22 21 19 17 16 16 15 15 15 14 14 13 13 12 12 12 12 12 13 12 12 12 13 14 13 13 13 13
18 18 19 18 14 14 15 16 18 19 20 20 21 20 20 20 21 21 22 23 22 22 21 20 18 16 16 16 15 15 14 14 14 13 12 12 12 12 13 13 12 12 13 14 14 14 14 14 13
17 18 18 13 13 14 17 18 18 18 20 20 20 20 20 20 21 21 22 23 22 22 21 20 19 17 16 16 15 15 14 14 14 13 12 12 12 12 13 13 12 12 13 14 14 14 15 14 14
17 18 16 13 14 14 15 17 17 16 20 20 21 20 20 21 21 21 22 22 22 22 21 20 19 18 17 16 15 15 15 14 14 14 13 12 12 13 13 13 13 13 13 14 14 14 14 14 14
16 17 14 13 13 14 14 16 17 17 18 20 21 20 21 21 21 21 21 21 21 21 20 20 19 18 17 16 16 15 15 15 15 15 13 13 13 13 13 13 13 13 13 14 14 14 14 14 14
15 13 12 12 13 14 14 17 18 18 18 20 20 20 21 21 21 21 21 20 19 19 19 19 19 18 17 17 16 15 15 14 15 15 14 13 13 13 13 13 13 13 13 13 14 14 14 14 14
14 11 11 12 13 14 15 17 18 18 18 20 21 20 21 21 21 21 20 19 19 18 18 19 19 18 18 16 16 15 15 14 14 14 14 13 13 13 13 13 13 13 13 13 13 13 13 13 13
14 11 12 11 12 14 16 18 19 19 19 20 20 20 21 21 21 21 20 19 18 18 18 18 18 18 18 17 16 15 15 14 14 14 14 14 14 14 14 14 14 14 13 13 13 13 13 13 13
13 10 11 11 12 14 16 17 19 19 19 20 20 21 21 21 21 21 21 20 19 18 18 17 18 18 18 17 16 15 14 14 14 14 14 15 15 14 14 14 14 13 13 13 13 13 13 13 12
12 10 11 12 13 14 15 16 17 18 18 19 20 20 21 21 21 21 21 21 20 20 19 18 18 17 17 16 16 15 14 14 14 14 14 15 14 14 14 13 13 13 13 12 12 12 12 12 12
10 10 12 13 14 15 14 15 16 17 16 18 19 20 20 21 21 21 21 21 20 20 19 19 18 18 17 16 16 15 14 14 13 13 14 14 14 13 13 13 13 13 12 12 12 12 12 12 12
10 10 11 13 14 14 14 14 15 16 17 18 18 18 18 19 20 21 21 21 20 20 20 19 19 18 17 16 15 15 14 13 13 13 13 13 13 13 13 13 12 12 12 12 11 11 11 11 11
10 10 11 12 13 13 13 13 13 14 15 16 17 18 18 18 19 20 20 20 20 20 20 20 19 18 17 16 15 14 14 13 13 12 12 12 12 12 12 12 12 11 11 11 11 11 11 11 11
10 10 10 11 12 13 12 13 13 13 15 15 16 17 18 18 19 20 20 20 20 20 20 20 20 19 17 16 15 14 14 13 13 12 12 12 12 12 12 12 11 11 11 11 11 11 12 12 12
10 9 9 10 11 12 12 12 12 14 15 15 16 16 17 18 19 19 20 20 20 20 21 21 20 19 17 16 15 14 14 13 13 12 12 12 12 12 12 11 11 11 11 11 11 12 12 11 11
10 9 9 10 11 12 12 11 13 15 15 15 16 17 17 18 19 19 19 20 20 20 21 21 20 20 18 16 15 14 14 13 13 12 12 12 12 12 11 11 11 11 11 11 11 11 11 11 10
9 8 8 10 11 11 10 10 12 14 14 14 15 16 17 18 19 19 19 19 20 20 20 20 20 19 17 15 15 14 14 13 13 12 12 12 12 11 11 11 11 11 11 11 11 10 10 9 9
8 8 9 9 10 10 9 10 11 13 13 13 14 15 16 16 18 19 19 19 19 20 20 19 19 18 17 15 14 14 14 13 13 12 12 12 11 11 11 11 11 11 10 10 10 9 8 8 8
8 8 8 9 10 9 9 9 10 11 11 12 13 14 15 16 17 18 19 19 19 19 19 19 18 17 16 15 14 14 13 13 12 12 12 11 11 11 11 11 11 10 10 10 9 8 8 7 7
7 7 7 8 9 10 8 9 10 10 10 12 12 13 14 16 17 18 18 18 18 18 18 18 17 16 16 15 14 14 13 12 12 12 11 11 11 11 11 11 10 10 9 9 8 8 7 6 6
6 6 6 7 8 8 8 9 9 10 11 12 13 14 14 15 17 17 18 18 17 17 17 17 16 15 15 14 14 13 12 12 11 11 11 11 11 11 11 10 10 9 9 8 8 7 6 5 5
6 7 7 7 6 6 7 7 8 9 10 11 12 13 14 16 17 17 18 18 17 16 16 16 15 14 14 14 13 13 12 12 11 11 11 11 11 10 10 10 9 9 8 8 7 6 5 5 4
5 7 7 7 6 6 6 6 8 9 9 10 10 13 14 15 16 17 18 18 17 16 15 15 14 13 13 13 13 12 12 12 11 11 11 11 10 10 9 9 8 8 7 7 6 5 4 4 3
7 7 7 6 6 6 6 6 7 8 9 10 11 13 15 16 17 17 18 17 16 15 14 14 13 13 13 13 12 12 12 11 11 11 11 11 10 9 9 8 8 7 7 6 5 4 4 3 3
6 6 6 6 6 6 7 7 8 8 10 11 12 13 15 16 16 16 17 16 15 14 14 13 12 12 12 12 12 11 11 12 12 12 11 10 9 9 8 8 7 6 6 5 4 4 3 3 3
5 6 6 6 6 5 7 7 8 9 10 12 13 14 15 15 15 15 16 16 16 14 13 12 12 12 12 12 11 11 11 11 11 11 10 9 9 8 7 7 6 6 5 4 4 3 3 3 2
5 5 6 6 6 6 6 7 8 10 9 10 11 12 13 14 15 14 15 15 15 14 13 12 12 12 12 11 11 11 11 11 11 10 9 8 8 7 7 6 5 5 4 4 3 3 2 2 2
6 6 5 5 6 6 6 6 8 10 10 10 10 10 12 13 13 13 13 14 14 13 13 12 12 12 12 11 11 11 10 10 10 9 8 8 7 6 6 5 5 4 3 3 2 2 2 1 1
6 6 6 6 6 5 6 7 9 10 10 10 11 11 12 12 12 11 11 12 13 12 12 12 12 11 11 11 11 10 10 10 9 8 7 7 6 6 5 5 4 3 3 2 2 2 1 1 1
6 6 6 6 6 5 5 8 11 10 10 10 10 11 11 11 10 9 9 10 12 12 12 11 11 11 11 11 10 10 9 9 8 7 7 6 6 5 5 4 3 2 2 2 1 1 1 1 0
Wind_Speed
16 10 3 5 6 4 3 5 4 5 4 2 2 4 4 5 6 4 0 8 6 8 14 14 16 16 17 16 14 11 9 8 7 8 9 9 8 8 7 6 4 3 4 5 5 5 5 6 6
8 4 6 5 4 1 6 5 4 4 5 5 1 2 2 4 2 1 2 7 7 10 13 13 16 16 17 16 14 12 10 9 8 8 7 7 7 7 7 6 5 3 3 4 4 5 5 5 4
5 6 5 4 5 6 6 4 3 7 8 4 1 2 2 3 2 3 4 9 8 8 11 13 16 17 17 17 15 13 11 10 9 8 6 5 5 7 8 7 5 4 3 2 3 3 3 4 4
4 5 5 3 7 7 6 5 4 9 8 3 1 1 2 3 2 2 6 9 9 8 11 13 16 16 17 17 15 13 12 10 9 8 6 5 4 5 8 9 7 6 4 2 1 1 2 4 5
4 4 1 4 8 6 6 5 3 5 6 5 1 1 3 1 2 4 9 9 9 7 9 13 16 16 17 16 15 13 12 10 9 9 7 5 2 2 5 9 9 7 5 3 2 3 5 6 7
4 4 4 7 9 5 6 4 3 5 5 5 3 2 5 1 4 4 7 8 8 7 7 11 16 16 17 16 15 14 12 10 9 8 8 6 1 4 3 6 8 7 5 4 4 6 7 8 8
5 5 6 7 7 7 6 5 4 5 5 5 5 4 5 4 5 7 7 7 6 6 6 7 12 14 16 16 15 14 12 11 10 8 8 6 2 2 3 3 6 5 4 5 6 8 9 9 9
5 5 5 6 7 8 3 3 3 5 7 4 4 6 4 4 7 8 7 6 5 6 7 6 8 10 12 14 15 14 12 10 10 9 7 5 3 0 2 2 4 3 4 6 7 8 9 9 10
4 3 7 7 7 5 2 2 3 3 4 3 3 5 2 2 8 8 5 4 5 7 6 6 6 7 10 11 12 12 11 11 11 9 7 4 1 1 2 2 3 4 5 6 8 10 10 10 11
5 6 8 6 5 3 4 3 5 6 5 4 4 4 3 3 7 8 7 8 10 11 10 8 8 7 7 9 9 9 9 9 9 7 6 4 1 1 3 4 4 5 5 6 8 11 12 13 12
6 6 3 4 5 6 7 6 4 4 6 6 6 6 5 2 6 8 8 8 9 8 10 11 10 8 6 5 6 6 7 7 8 7 5 4 2 2 2 3 4 4 5 7 11 12 12 12 11
4 5 4 3 3 5 7 7 7 9 10 7 5 5 6 6 8 10 10 9 7 8 9 10 11 10 8 6 5 6 5 5 5 7 6 4 2 2 3 4 5 7 8 9 10 9 10 10 10
5 5 4 6 8 8 9 9 8 9 10 10 10 9 9 10 11 10 9 8 7 9 11 11 11 12 10 8 5 4 5 5 6 6 5 5 4 4 4 5 8 9 10 8 7 6 7 7 7
3 3 5 5 7 6 10 15 11 11 9 10 11 11 12 12 13 10 9 11 11 12 13 12 14 13 11 9 7 6 5 6 6 5 7 8 9 7 5 5 6 7 9 9 8 6 5 4 4
2 4 6 6 8 7 7 15 15 14 12 14 13 13 13 14 12 12 12 11 12 11 10 11 13 13 13 11 8 6 6 7 6 7 10 12 12 10 8 6 6 6 8 9 8 5 6 5 6
3 3 4 4 6 8 9 18 6 9 11 13 12 12 12 14 13 12 12 12 11 9 7 10 11 13 13 10 8 6 8 8 7 10 11 13 12 12 10 6 6 8 9 7 5 5 5 6 6
4 5 4 5 4 4 8 10 6 7 9 12 11 11 11 12 13 12 11 10 9 7 7 10 11 14 13 12 10 9 8 7 8 11 11 12 13 13 11 7 6 9 7 5 5 6 5 6 7
5 5 4 4 2 5 9 13 11 11 11 11 11 11 10 11 14 11 8 8 6 6 8 10 12 14 14 12 11 10 9 8 8 9 11 13 13 14 13 8 8 9 6 6 5 6 6 4 6
1 4 7 6 7 8 12 19 15 11 13 13 13 13 12 12 11 7 7 7 6 6 9 13 15 14 14 12 10 10 8 7 7 7 11 13 13 14 12 7 6 7 7 6 6 4 6 6 5
8 11 11 9 7 9 14 25 20 14 16 18 18 17 15 13 8 6 7 6 6 7 10 13 14 13 12 11 7 6 8 7 7 6 9 12 13 13 12 8 7 6 6 8 8 6 4 4 5
9 9 8 9 8 7 13 20 16 14 19 21 20 17 16 16 13 11 10 9 8 8 11 13 13 13 13 13 12 12 8 7 5 6 5 7 12 14 13 10 7 6 7 6 6 6 5 4 4
10 8 10 9 7 6 6 10 7 8 11 14 14 13 14 15 13 11 11 11 10 9 9 12 13 14 15 16 16 17 10 8 6 5 5 6 11 12 13 11 9 6 6 6 5 5 3 3 3
7 6 9 9 8 10 7 10 11 7 11 11 13 14 15 15 15 15 15 14 10 10 11 12 13 14 15 14 17 15 11 8 7 8 9 8 7 9 11 11 9 6 5 6 5 4 3 2 1
6 3 5 6 6 11 11 11 11 7 9 11 14 14 15 15 15 14 11 10 9 10 11 13 14 13 12 13 13 15 16 16 14 10 9 6 5 6 7 9 8 7 5 5 4 3 3 1 1
7 6 4 6 8 8 9 10 12 8 11 14 15 14 13 11 12 13 15 15 15 15 14 14 16 14 12 12 12 13 16 15 15 12 10 8 5 4 5 5 5 4 4 4 3 2 2 1 2
12 12 9 6 6 5 7 12 10 10 13 14 15 13 10 9 11 14 17 19 18 18 16 16 16 14 12 12 11 10 12 10 9 9 8 7 5 5 6 6 6 5 5 4 2 2 2 2 3
8 11 9 6 5 6 7 8 9 9 11 14 16 14 11 10 13 16 16 16 17 18 16 16 16 14 12 12 12 11 11 11 11 9 8 7 6 6 6 6 5 4 3 3 2 2 3 4 3
8 6 6 9 7 9 8 8 7 8 9 12 14 15 14 11 13 15 15 14 14 13 12 12 14 14 12 12 11 11 11 11 11 10 9 8 7 7 7 6 5 4 3 3 3 3 4 4 4
12 10 10 7 5 6 6 8 7 7 4 10 14 14 12 12 14 15 13 13 13 13 13 13 13 14 13 12 13 13 12 12 11 10 9 8 7 7 7 5 4 3 3 3 3 4 5 6 7
13 15 15 10 8 6 6 11 5 4 6 11 14 10 3 7 10 12 13 14 14 15 13 13 13 14 13 13 14 13 12 12 11 9 8 8 8 7 6 5 4 4 4 4 4 5 6 7 8
Wind_Direction
333 340 41 50 46 42 259 250 240 278 264 245 231 244 205 187 177 201 312 158 148 149 167 180 170 170 162 157 154 155 157 157 152 148 147 144 144 145 151 156 148 123 81 54 48 50 51 47 41
334 359 47 56 88 307 268 250 249 267 290 306 155 171 246 252 247 203 175 172 153 150 160 169 168 165 160 158 158 160 161 160 156 155 157 160 162 168 174 173 169 152 106 68 59 58 55 49 36
3 46 73 80 147 191 237 235 241 296 298 292 110 142 217 264 273 222 202 159 144 147 155 161 164 163 162 162 163 165 166 166 164 162 162 176 189 203 199 193 185 172 138 97 70 60 42 25 9
42 42 59 105 223 218 226 253 302 321 324 311 201 175 265 261 277 236 138 144 146 152 154 161 165 166 166 167 168 170 173 175 173 171 175 190 210 230 222 206 190 180 175 174 126 22 354 345 331
55 79 113 247 242 240 244 258 277 311 300 304 227 233 281 305 17 113 134 144 153 160 161 167 171 173 171 171 173 176 179 182 181 184 192 197 210 297 246 210 190 183 193 217 273 310 326 330 328
58 84 168 233 248 255 263 255 292 282 267 278 189 177 277 339 93 142 147 150 160 169 171 174 179 178 176 176 177 180 184 187 184 186 199 201 204 5 357 192 183 187 210 254 295 314 322 324 325
127 137 207 225 255 260 245 211 218 245 256 252 193 165 281 291 144 146 155 148 161 174 177 181 183 182 180 179 180 183 190 193 188 187 199 200 188 25 31 151 174 194 238 287 309 320 326 328 327
142 144 215 222 232 260 248 217 234 220 246 248 178 172 240 262 137 126 142 154 169 182 191 184 182 179 177 179 183 186 193 197 188 188 189 180 181 27 31 144 180 220 273 301 313 321 328 334 335
107 143 219 213 205 253 281 262 308 316 276 283 225 216 258 91 123 114 117 162 186 198 200 190 181 178 176 178 185 186 192 193 183 181 177 165 179 280 296 265 258 278 296 312 329 344 360 10 11
145 206 227 200 201 250 319 308 307 331 327 310 292 274 345 132 157 159 169 186 198 203 201 198 194 185 175 181 176 177 181 182 174 172 166 156 150 309 301 301 305 317 332 350 13 30 38 42 37
175 217 238 235 247 277 292 284 270 271 268 245 263 304 329 221 192 196 204 205 207 204 204 201 199 188 174 167 159 165 169 168 170 175 170 150 113 28 15 18 11 22 38 50 54 55 48 46 42
208 229 236 267 289 274 271 275 267 232 237 254 269 291 310 270 225 215 219 220 203 198 205 204 201 192 181 166 161 165 164 163 170 180 173 146 110 76 66 62 56 57 64 65 61 59 51 47 43
237 255 254 277 293 281 281 270 268 252 251 274 289 286 270 263 251 245 244 248 220 213 210 197 195 194 184 171 162 162 168 171 176 174 171 148 122 105 89 77 70 64 65 66 64 59 49 39 32
236 272 291 280 275 272 264 267 258 253 247 262 265 266 263 253 245 245 247 251 241 227 222 198 190 186 177 175 170 171 168 160 153 153 150 139 127 117 102 86 74 67 68 68 66 59 46 33 25
228 281 289 247 237 242 263 268 242 247 245 253 253 252 256 254 245 233 232 236 244 238 222 195 186 174 171 170 167 160 152 141 134 128 128 125 121 114 103 91 79 68 70 70 62 54 45 32 20
253 250 274 280 233 222 210 262 257 226 229 244 245 243 246 251 246 238 236 239 241 233 204 185 178 169 163 155 144 134 132 131 125 118 115 114 113 110 101 94 83 72 65 59 55 34 32 20 7
234 239 232 280 255 269 228 268 287 258 246 254 255 250 245 249 256 249 238 234 227 210 180 164 159 159 149 134 123 117 117 114 115 114 113 110 107 105 102 94 85 76 63 44 47 41 35 17 354
213 224 223 228 322 337 287 278 290 302 295 280 271 264 257 250 254 257 240 225 200 177 157 146 148 148 134 124 117 110 102 97 98 102 108 109 108 107 101 91 80 74 64 45 37 40 33 20 351
220 268 271 277 314 310 282 283 280 270 274 276 275 269 262 255 258 255 226 199 172 154 148 150 153 148 141 137 132 127 118 108 97 95 103 108 109 105 98 93 80 74 74 60 42 36 24 12 358
253 264 272 285 277 284 284 283 279 255 255 257 260 261 259 256 253 225 204 191 190 168 156 153 154 152 145 139 130 123 121 108 95 96 97 103 104 100 97 94 90 85 83 63 48 44 37 13 18
239 243 253 265 297 280 291 287 264 243 238 245 246 242 241 243 236 216 200 199 190 177 164 156 151 147 138 130 121 119 110 106 106 103 89 87 97 96 99 97 95 83 80 73 60 51 55 19 3
250 221 228 245 255 266 234 284 260 236 246 248 249 239 232 231 222 207 194 194 190 177 158 149 149 147 144 141 142 144 144 142 142 133 115 95 93 96 97 95 90 82 78 74 63 62 56 58 12
222 212 217 228 237 256 230 263 274 215 248 252 251 241 232 225 213 202 196 191 172 156 153 150 146 149 152 151 150 146 135 124 123 118 112 99 88 90 93 91 87 80 77 75 64 58 54 80 98
197 240 261 238 238 259 219 225 273 205 234 243 248 242 231 220 208 199 178 153 148 150 152 151 150 152 153 148 147 144 139 137 138 133 124 112 99 85 85 88 84 81 76 70 62 54 47 39 354
182 205 235 226 223 245 185 214 257 221 223 228 242 247 238 219 196 175 162 163 163 162 161 157 154 152 149 144 142 144 144 145 145 142 135 128 113 101 92 87 81 75 71 69 56 37 8 334 321
190 194 213 225 228 261 215 233 257 241 240 244 248 250 243 207 183 179 177 173 168 166 164 161 157 151 146 140 132 128 130 131 131 128 127 120 118 118 107 93 84 75 64 56 38 4 322 316 303
186 206 216 249 254 262 251 269 293 259 259 259 258 257 243 208 186 183 178 173 167 165 165 161 152 145 140 134 127 124 123 125 125 116 107 109 115 110 98 90 83 66 49 32 10 334 319 313 291
214 179 183 214 229 243 262 261 252 272 286 287 278 262 242 208 189 180 173 166 160 154 144 141 143 139 132 127 126 125 119 119 119 115 113 111 104 98 95 85 75 55 33 10 356 328 316 315 300
198 210 217 224 210 210 254 257 224 227 290 319 309 281 243 205 185 172 159 146 137 132 132 131 128 126 124 120 118 118 115 113 110 110 112 110 103 98 92 84 68 41 18 360 355 331 318 316 307
205 210 209 224 221 210 236 260 247 259 318 342 329 305 233 161 147 141 136 133 133 131 129 129 128 125 122 121 118 116 116 113 110 110 111 110 104 95 90 80 60 28 6 353 344 327 325 314 307
Height
1508 1507 1507 1507 1510 1521 1519 1510 1504 1501 1497 1496 1496 1495 1494 1495 1497 1499 1494 1494 1496 1497 1498 1499 1502 1505 1507 1509 1510 1511 1512 1511 1511 1511 1513 1514 1515 1516 1516 1517 1517 1517 1516 1515 1514 1514 1515 1516 1517
1506 1507 1508 1506 1517 1527 1521 1507 1502 1498 1496 1494 1493 1494 1493 1492 1491 1491 1492 1493 1495 1496 1498 1499 1502 1505 1507 1509 1510 1511 1512 1511 1511 1511 1513 1515 1516 1516 1517 1517 1517 1517 1516 1516 1515 1515 1515 1516 1516
1506 1506 1507 1510 1519 1522 1513 1502 1499 1496 1494 1493 1492 1492 1492 1492 1491 1491 1492 1493 1494 1496 1498 1499 1502 1504 1506 1508 1510 1511 1511 1511 1511 1511 1513 1515 1516 1516 1517 1517 1518 1518 1517 1517 1516 1516 1516 1517 1517
1506 1506 1507 1514 1515 1511 1505 1500 1498 1496 1494 1493 1491 1491 1491 1492 1492 1492 1493 1494 1494 1495 1497 1500 1502 1504 1506 1508 1509 1511 1511 1511 1511 1511 1513 1514 1516 1517 1517 1518 1519 1518 1518 1518 1518 1517 1517 1517 1518
1504 1505 1510 1514 1511 1504 1500 1497 1497 1497 1496 1494 1492 1491 1490 1492 1491 1492 1494 1495 1495 1495 1497 1499 1501 1503 1505 1507 1509 1510 1511 1511 1511 1512 1513 1515 1516 1517 1518 1518 1519 1519 1518 1518 1518 1518 1517 1517 1517
1504 1504 1515 1515 1507 1501 1498 1496 1496 1495 1494 1493 1492 1491 1490 1491 1491 1492 1493 1495 1496 1497 1498 1499 1501 1503 1505 1507 1508 1510 1511 1512 1512 1512 1513 1515 1516 1517 1517 1518 1519 1519 1519 1518 1518 1517 1517 1517 1516
1502 1507 1511 1509 1505 1501 1496 1495 1495 1493 1492 1492 1492 1491 1490 1491 1491 1491 1493 1494 1496 1497 1498 1500 1501 1503 1504 1506 1508 1509 1510 1512 1512 1513 1514 1514 1515 1516 1517 1518 1519 1519 1519 1518 1518 1517 1516 1516 1516
1499 1504 1506 1506 1504 1499 1494 1493 1493 1492 1491 1491 1492 1491 1490 1491 1491 1491 1492 1493 1494 1496 1498 1499 1501 1502 1504 1505 1507 1508 1510 1511 1512 1513 1514 1514 1515 1516 1517 1518 1519 1519 1518 1518 1518 1517 1516 1516 1516
1497 1505 1505 1503 1501 1496 1493 1492 1492 1492 1491 1490 1490 1490 1490 1490 1490 1490 1491 1491 1493 1494 1496 1498 1500 1501 1503 1504 1506 1507 1509 1510 1512 1512 1513 1513 1514 1515 1516 1518 1518 1518 1517 1517 1517 1516 1515 1515 1514
1496 1501 1497 1495 1494 1493 1492 1492 1491 1491 1490 1490 1489 1489 1489 1489 1489 1489 1489 1490 1491 1492 1494 1496 1498 1500 1501 1503 1505 1507 1508 1509 1510 1511 1512 1513 1514 1515 1516 1517 1517 1517 1516 1516 1516 1516 1515 1513 1512
1493 1495 1492 1491 1491 1492 1491 1491 1491 1491 1490 1489 1489 1488 1488 1487 1487 1487 1488 1489 1490 1491 1493 1495 1496 1498 1500 1502 1504 1506 1507 1508 1509 1510 1511 1512 1513 1514 1515 1516 1516 1516 1516 1515 1515 1515 1513 1511 1510
1491 1490 1490 1490 1490 1490 1489 1488 1488 1487 1487 1487 1487 1487 1487 1486 1485 1486 1487 1488 1488 1489 1491 1493 1494 1496 1498 1500 1502 1505 1506 1507 1508 1509 1511 1512 1513 1514 1515 1516 1516 1515 1515 1514 1513 1513 1511 1509 1508
1489 1488 1488 1488 1488 1488 1487 1485 1484 1481 1483 1483 1483 1483 1484 1484 1484 1484 1485 1485 1486 1487 1488 1490 1491 1493 1495 1498 1501 1503 1505 1506 1507 1508 1510 1511 1512 1513 1514 1515 1515 1514 1513 1512 1512 1511 1509 1507 1506
1486 1486 1485 1485 1485 1483 1483 1479 1479 1473 1477 1478 1478 1478 1479 1480 1480 1480 1481 1482 1482 1483 1484 1486 1487 1489 1492 1495 1498 1501 1503 1505 1506 1507 1509 1510 1512 1512 1513 1513 1513 1513 1511 1510 1510 1509 1506 1504 1503
1484 1485 1483 1481 1481 1480 1480 1472 1468 1469 1472 1471 1471 1472 1473 1474 1475 1475 1476 1477 1478 1479 1480 1481 1482 1485 1488 1492 1496 1499 1501 1503 1505 1506 1508 1510 1511 1511 1511 1512 1511 1511 1509 1508 1507 1506 1503 1501 1500
1483 1483 1484 1479 1476 1474 1480 1468 1464 1464 1463 1462 1463 1464 1466 1467 1468 1469 1470 1471 1472 1473 1474 1475 1477 1479 1483 1488 1492 1496 1498 1501 1503 1505 1507 1508 1509 1510 1510 1510 1510 1509 1508 1506 1505 1503 1500 1498 1497
1483 1483 1483 1479 1474 1473 1474 1466 1460 1458 1458 1457 1457 1457 1458 1459 1461 1462 1464 1465 1466 1467 1468 1470 1472 1475 1479 1484 1488 1492 1495 1498 1500 1503 1505 1506 1507 1508 1508 1508 1508 1507 1506 1504 1502 1499 1496 1495 1494
1481 1481 1479 1477 1473 1473 1472 1465 1461 1458 1456 1453 1451 1451 1451 1452 1454 1456 1457 1458 1459 1461 1463 1465 1467 1470 1475 1479 1484 1488 1491 1494 1497 1500 1502 1504 1505 1506 1507 1507 1506 1505 1503 1501 1499 1496 1493 1492 1491
1479 1479 1479 1476 1472 1473 1468 1460 1457 1455 1453 1449 1446 1445 1444 1445 1448 1450 1451 1452 1453 1455 1457 1460 1463 1466 1470 1474 1478 1483 1488 1491 1495 1498 1500 1502 1504 1505 1505 1505 1504 1502 1501 1499 1497 1494 1492 1490 1488
1478 1478 1478 1477 1474 1471 1465 1453 1448 1447 1445 1443 1441 1439 1439 1440 1441 1444 1446 1447 1449 1450 1453 1456 1459 1462 1466 1470 1476 1481 1485 1489 1493 1496 1498 1501 1503 1503 1503 1503 1502 1500 1499 1497 1495 1493 1490 1488 1486
1478 1479 1479 1479 1475 1471 1468 1446 1437 1432 1431 1430 1429 1429 1430 1433 1434 1437 1440 1442 1444 1446 1448 1451 1455 1459 1463 1468 1474 1478 1482 1486 1490 1493 1496 1499 1501 1501 1501 1500 1499 1498 1497 1495 1493 1491 1489 1488 1486
1475 1473 1475 1475 1478 1477 1469 1455 1431 1427 1425 1422 1420 1420 1420 1423 1426 1429 1433 1436 1439 1442 1445 1448 1452 1456 1461 1466 1471 1475 1478 1482 1487 1491 1494 1497 1498 1499 1498 1498 1497 1496 1495 1494 1492 1490 1488 1486 1485
1472 1470 1471 1471 1474 1474 1468 1465 1428 1425 1421 1418 1415 1412 1411 1413 1417 1421 1425 1429 1433 1437 1441 1445 1448 1453 1459 1464 1469 1473 1477 1481 1485 1489 1492 1495 1496 1496 1496 1496 1495 1494 1493 1492 1490 1488 1487 1484 1482
1468 1470 1470 1469 1471 1466 1456 1461 1429 1424 1416 1412 1407 1403 1401 1403 1407 1412 1418 1422 1427 1433 1438 1441 1445 1451 1457 1462 1467 1470 1474 1478 1482 1486 1490 1492 1493 1494 1494 1494 1493 1492 1491 1490 1488 1487 1485 1483 1480
1466 1471 1471 1467 1461 1456 1446 1444 1422 1414 1407 1403 1399 1395 1394 1396 1399 1404 1409 1415 1422 1428 1433 1437 1442 1448 1454 1460 1464 1469 1473 1478 1482 1485 1488 1490 1491 1492 1492 1491 1491 1490 1488 1487 1486 1484 1482 1480 1477
1459 1462 1463 1463 1459 1454 1442 1431 1414 1405 1399 1395 1392 1390 1389 1391 1394 1398 1402 1409 1415 1422 1428 1433 1439 1445 1452 1457 1462 1467 1472 1477 1482 1485 1487 1489 1489 1490 1489 1489 1488 1487 1485 1484 1482 1481 1479 1477 1474
1454 1454 1453 1455 1449 1448 1437 1422 1409 1398 1396 1392 1388 1385 1385 1386 1388 1392 1397 1404 1410 1417 1424 1430 1436 1443 1449 1455 1460 1465 1470 1476 1480 1483 1485 1487 1487 1487 1487 1486 1485 1484 1482 1481 1479 1477 1475 1473 1470
1448 1447 1451 1450 1445 1440 1433 1424 1411 1398 1394 1390 1385 1380 1378 1380 1383 1387 1392 1399 1406 1414 1422 1430 1436 1442 1448 1453 1458 1464 1469 1474 1478 1481 1483 1484 1485 1485 1484 1483 1482 1481 1479 1477 1475 1473 1471 1468 1466
1442 1443 1441 1439 1438 1441 1433 1414 1395 1392 1390 1387 1381 1375 1372 1373 1377 1382 1388 1394 1402 1412 1421 1428 1434 1440 1446 1452 1457 1463 1468 1472 1475 1478 1480 1482 1482 1481 1481 1480 1479 1478 1475 1473 1471 1469 1466 1464 1461
1429 1428 1432 1432 1430 1431 1430 1407 1387 1387 1385 1382 1378 1372 1368 1370 1375 1380 1386 1392 1401 1410 1419 1427 1433 1439 1445 1451 1457 1462 1466 1470 1473 1476 1478 1479 1478 1478 1477 1477 1476 1474 1472 1469 1467 1464 1462 1459 1455